SAS7290 EHRD-EGLC

Flight info

Callsign SAS7290
Flight time 0h 41m
Altitude 20000
Route ABNED L980 XAMAN
Aircraft A319/M-SDE3FGHIRWY/LB1

Departure

Time 2026-05-01 13:08
Airport Rotterdam The Hague Airport (EHRD)

Arrival

Time 2026-05-01 13:50
Airport London City Airport (EGLC)
Time Latitude Longitude Altitude Speed Heading
2026-05-01 12:47 51.94968 4.43636 1 ft 0 kts 327°
2026-05-01 13:01 51.94964 4.43639 1 ft 3 kts 327°
2026-05-01 13:02 51.94959 4.43645 1 ft 0 kts 327°
2026-05-01 13:07 51.95237 4.42897 2 ft 11 kts 51°
2026-05-01 13:07 51.95246 4.42919 2 ft 6 kts 55°
2026-05-01 13:07 51.95403 4.43311 0 ft 77 kts 57°
2026-05-01 13:08 51.95804 4.44319 2 ft 134 kts 58°
2026-05-01 13:08 51.96316 4.45702 462 ft 142 kts 63°
2026-05-01 13:08 51.96813 4.47080 1066 ft 143 kts 65°
2026-05-01 13:08 51.97312 4.48453 1634 ft 147 kts 65°
2026-05-01 13:09 51.97886 4.49883 2233 ft 158 kts 60°
2026-05-01 13:09 51.98681 4.51302 2798 ft 184 kts 43°
2026-05-01 13:09 51.99943 4.52214 3242 ft 215 kts 13°
2026-05-01 13:09 52.01537 4.52087 3568 ft 249 kts 339°
2026-05-01 13:10 52.02912 4.50299 4271 ft 258 kts 297°
2026-05-01 13:10 52.03448 4.47642 5496 ft 244 kts 269°
2026-05-01 13:10 52.03156 4.45010 6537 ft 235 kts 239°
2026-05-01 13:10 52.02126 4.43026 7511 ft 231 kts 214°
2026-05-01 13:11 52.00833 4.41465 8492 ft 233 kts 213°
2026-05-01 13:11 51.99516 4.39899 9426 ft 237 kts 213°
2026-05-01 13:11 51.98170 4.38301 10360 ft 241 kts 213°
2026-05-01 13:11 51.96962 4.36362 11181 ft 251 kts 231°
2026-05-01 13:12 51.96174 4.33744 11781 ft 274 kts 250°
2026-05-01 13:12 51.95847 4.30533 12126 ft 301 kts 258°
2026-05-01 13:12 51.95565 4.27031 12414 ft 325 kts 259°
2026-05-01 13:12 51.95267 4.23313 12964 ft 338 kts 259°
2026-05-01 13:13 51.94959 4.19504 13721 ft 343 kts 258°
2026-05-01 13:13 51.94640 4.15643 14454 ft 347 kts 258°
2026-05-01 13:13 51.94314 4.11750 15192 ft 351 kts 258°
2026-05-01 13:13 51.93978 4.07815 15934 ft 354 kts 258°
2026-05-01 13:14 51.93614 4.03855 16654 ft 357 kts 257°
2026-05-01 13:14 51.93228 3.99868 17388 ft 360 kts 257°
2026-05-01 13:14 51.92831 3.95845 18112 ft 363 kts 257°
2026-05-01 13:14 51.92428 3.91788 18786 ft 366 kts 257°
2026-05-01 13:15 51.92021 3.87701 19392 ft 369 kts 257°
2026-05-01 13:15 51.91611 3.83579 19973 ft 373 kts 257°
2026-05-01 13:15 51.91202 3.79428 20184 ft 373 kts 257°
2026-05-01 13:15 51.90800 3.75324 20241 ft 361 kts 258°
2026-05-01 13:16 51.90415 3.71364 20243 ft 352 kts 257°
2026-05-01 13:16 51.90032 3.67464 20243 ft 350 kts 257°
2026-05-01 13:16 51.89645 3.63581 20244 ft 349 kts 257°
2026-05-01 13:17 51.88476 3.51950 20243 ft 349 kts 257°
2026-05-01 13:17 51.88084 3.48086 20243 ft 349 kts 257°
2026-05-01 13:18 51.87299 3.40350 20240 ft 348 kts 257°
2026-05-01 13:18 51.86904 3.36477 20241 ft 348 kts 257°
2026-05-01 13:18 51.86509 3.32613 20250 ft 348 kts 257°
2026-05-01 13:18 51.86111 3.28744 20245 ft 349 kts 257°
2026-05-01 13:19 51.85711 3.24881 20241 ft 349 kts 257°
2026-05-01 13:19 51.85312 3.21014 20244 ft 348 kts 257°
2026-05-01 13:19 51.84575 3.13261 20245 ft 349 kts 259°
2026-05-01 13:20 51.84314 3.09359 20243 ft 350 kts 261°
2026-05-01 13:20 51.84088 3.05441 20244 ft 350 kts 261°
2026-05-01 13:20 51.83870 3.01524 20243 ft 350 kts 261°
2026-05-01 13:21 51.83399 2.93703 20241 ft 349 kts 260°
2026-05-01 13:21 51.83146 2.89793 20239 ft 349 kts 260°
2026-05-01 13:21 51.82888 2.85890 20235 ft 349 kts 260°
2026-05-01 13:21 51.82626 2.81985 20233 ft 349 kts 260°
2026-05-01 13:22 51.82360 2.78081 20232 ft 349 kts 260°
2026-05-01 13:22 51.82094 2.74177 20231 ft 349 kts 260°
2026-05-01 13:22 51.81828 2.70279 20230 ft 349 kts 260°
2026-05-01 13:22 51.81564 2.66379 20230 ft 349 kts 260°
2026-05-01 13:23 51.81299 2.62485 20227 ft 349 kts 259°
2026-05-01 13:23 51.81031 2.58586 20230 ft 349 kts 259°
2026-05-01 13:23 51.80760 2.54692 20228 ft 349 kts 259°
2026-05-01 13:23 51.80487 2.50795 20230 ft 354 kts 259°
2026-05-01 13:24 51.80198 2.46750 20226 ft 368 kts 259°
2026-05-01 13:24 51.79903 2.42620 20225 ft 371 kts 259°
2026-05-01 13:24 51.79608 2.38470 20223 ft 372 kts 259°
2026-05-01 13:25 51.79029 2.30281 19654 ft 362 kts 259°
2026-05-01 13:25 51.78745 2.26272 19275 ft 356 kts 259°
2026-05-01 13:25 51.78465 2.22328 18899 ft 351 kts 259°
2026-05-01 13:25 51.78204 2.18431 18537 ft 347 kts 260°
2026-05-01 13:26 51.77971 2.14588 18105 ft 342 kts 260°
2026-05-01 13:26 51.77754 2.10779 17681 ft 338 kts 261°
2026-05-01 13:26 51.77446 2.07054 17269 ft 330 kts 251°
2026-05-01 13:26 51.76801 2.03530 16858 ft 326 kts 249°
2026-05-01 13:27 51.76152 2.00036 16452 ft 323 kts 249°
2026-05-01 13:27 51.75509 1.96577 16048 ft 320 kts 249°
2026-05-01 13:27 51.74238 1.89770 15266 ft 314 kts 249°
2026-05-01 13:28 51.72982 1.83065 14499 ft 310 kts 249°
2026-05-01 13:28 51.72364 1.79786 14126 ft 308 kts 249°
2026-05-01 13:29 51.71122 1.73209 13297 ft 305 kts 249°
2026-05-01 13:29 51.69890 1.66701 12476 ft 302 kts 249°
2026-05-01 13:30 51.67471 1.54017 11059 ft 290 kts 249°
2026-05-01 13:31 51.66288 1.47845 10385 ft 287 kts 249°
2026-05-01 13:31 51.64538 1.38736 9314 ft 281 kts 250°
2026-05-01 13:32 51.63388 1.32766 8594 ft 277 kts 250°
2026-05-01 13:33 51.61684 1.23954 7540 ft 272 kts 250°
2026-05-01 13:33 51.60748 1.19153 6976 ft 270 kts 250°
2026-05-01 13:34 51.59636 1.13427 6292 ft 266 kts 250°
2026-05-01 13:34 51.58528 1.07795 6026 ft 263 kts 250°
2026-05-01 13:35 51.57422 1.02165 6038 ft 264 kts 250°
2026-05-01 13:35 51.56869 0.99354 6039 ft 264 kts 249°
2026-05-01 13:35 51.55760 0.93717 6038 ft 264 kts 250°
2026-05-01 13:36 51.55208 0.90900 6037 ft 264 kts 249°
2026-05-01 13:36 51.54655 0.88090 6037 ft 264 kts 249°
2026-05-01 13:36 51.53543 0.82469 6037 ft 264 kts 249°
2026-05-01 13:37 51.52982 0.79648 5889 ft 265 kts 249°
2026-05-01 13:37 51.52422 0.76837 5705 ft 263 kts 249°
2026-05-01 13:37 51.51867 0.74052 5526 ft 262 kts 249°
2026-05-01 13:37 51.51311 0.71262 5353 ft 262 kts 249°
2026-05-01 13:38 51.50204 0.65712 5008 ft 260 kts 249°
2026-05-01 13:38 51.49651 0.62952 4843 ft 260 kts 249°
2026-05-01 13:38 51.49097 0.60191 4650 ft 259 kts 249°
2026-05-01 13:39 51.48544 0.57439 4474 ft 259 kts 249°
2026-05-01 13:39 51.47992 0.54695 4287 ft 258 kts 249°
2026-05-01 13:39 51.47439 0.51952 4134 ft 258 kts 249°
2026-05-01 13:39 51.46888 0.49215 4023 ft 258 kts 249°
2026-05-01 13:40 51.46339 0.46488 4035 ft 258 kts 249°
2026-05-01 13:40 51.45784 0.43751 3887 ft 256 kts 249°
2026-05-01 13:40 51.45231 0.41043 3573 ft 253 kts 249°
2026-05-01 13:40 51.44696 0.38413 3444 ft 243 kts 249°
2026-05-01 13:41 51.44183 0.35881 3310 ft 234 kts 248°
2026-05-01 13:41 51.43689 0.33447 3186 ft 227 kts 250°
2026-05-01 13:41 51.43219 0.31078 3086 ft 221 kts 252°
2026-05-01 13:41 51.43088 0.28697 3002 ft 208 kts 270°
2026-05-01 13:42 51.43175 0.26435 3014 ft 199 kts 269°
2026-05-01 13:42 51.43249 0.24253 3044 ft 194 kts 269°
2026-05-01 13:42 51.43319 0.22096 3027 ft 194 kts 269°
2026-05-01 13:42 51.43390 0.19958 3006 ft 191 kts 270°
2026-05-01 13:43 51.43459 0.17841 3008 ft 189 kts 269°
2026-05-01 13:43 51.43527 0.15735 2858 ft 190 kts 269°
2026-05-01 13:43 51.43594 0.13622 2609 ft 189 kts 269°
2026-05-01 13:43 51.43662 0.11531 2316 ft 186 kts 270°
2026-05-01 13:44 51.43729 0.09452 2043 ft 189 kts 268°
2026-05-01 13:44 51.43796 0.07347 2005 ft 190 kts 268°
2026-05-01 13:44 51.43863 0.05258 2007 ft 190 kts 268°
2026-05-01 13:44 51.43929 0.03168 2011 ft 191 kts 269°
2026-05-01 13:45 51.43993 0.01042 2015 ft 188 kts 269°
2026-05-01 13:45 51.44056 -0.01069 2013 ft 191 kts 269°
2026-05-01 13:45 51.44121 -0.03173 2011 ft 188 kts 268°
2026-05-01 13:45 51.44189 -0.05296 2011 ft 190 kts 268°
2026-05-01 13:46 51.44256 -0.07383 2016 ft 190 kts 268°
2026-05-01 13:46 51.44639 -0.09409 2005 ft 199 kts 298°
2026-05-01 13:46 51.45727 -0.10831 2004 ft 206 kts 336°
2026-05-01 13:46 51.47118 -0.11356 2014 ft 204 kts 346°
2026-05-01 13:47 51.48512 -0.11415 2006 ft 202 kts 11°
2026-05-01 13:47 51.49777 -0.10547 2009 ft 199 kts 38°
2026-05-01 13:47 51.50634 -0.08888 2020 ft 189 kts 68°
2026-05-01 13:47 51.50906 -0.06905 2011 ft 178 kts 94°
2026-05-01 13:48 51.50849 -0.04957 2015 ft 170 kts 97°
2026-05-01 13:48 51.50795 -0.03166 1749 ft 157 kts 96°
2026-05-01 13:48 51.50741 -0.01450 1365 ft 151 kts 98°
2026-05-01 13:48 51.50691 0.00190 993 ft 143 kts 97°
2026-05-01 13:49 51.50643 0.01727 662 ft 135 kts 97°
2026-05-01 13:49 51.50596 0.03215 333 ft 132 kts 95°
2026-05-01 13:49 51.50551 0.04666 39 ft 127 kts 96°
2026-05-01 13:49 51.50510 0.05826 26 ft 65 kts 93°
2026-05-01 13:50 51.50503 0.06116 26 ft 10 kts 92°
2026-05-01 13:50 51.50499 0.06267 26 ft 16 kts 92°
2026-05-01 13:50 51.50491 0.06463 26 ft 19 kts 94°
2026-05-01 13:50 51.50492 0.06568 30 ft 2 kts 332°
2026-05-01 13:51 51.50494 0.06512 28 ft 8 kts 271°
2026-05-01 13:51 51.50495 0.06409 26 ft 10 kts 271°
2026-05-01 13:51 51.50498 0.06294 26 ft 11 kts 272°
2026-05-01 13:51 51.50503 0.06169 26 ft 12 kts 274°
2026-05-01 13:52 51.50509 0.06030 26 ft 13 kts 275°
2026-05-01 13:52 51.50515 0.05875 26 ft 15 kts 273°
2026-05-01 13:52 51.50521 0.05705 26 ft 16 kts 273°
2026-05-01 13:52 51.50524 0.05520 26 ft 17 kts 271°
2026-05-01 13:53 51.50505 0.05340 27 ft 16 kts 231°
2026-05-01 13:53 51.50440 0.05148 27 ft 2 kts 197°
2026-05-01 13:53 51.50428 0.05135 27 ft 2 kts 221°
2026-05-01 13:54 51.50421 0.05135 26 ft 1 kts 185°
2026-05-01 13:54 51.50413 0.05135 29 ft 1 kts 182°
2026-05-01 13:54 51.50407 0.05135 28 ft 0 kts 182°